Regional Weather Roundup
Issued by NWS Little Rock, AR

Home | Current Version | Previous Version | Text Only | Print | Product List | Glossary Off
Versions: 1 2 3 4 5 6 7 8 9 10 11 12 13 14 15 16 17 18 19 20 21 22 23 24 25 26 27 28 29 30 31 32 33 34 35 36 37 38 39 40 41 42 43 44 45 46 47 48 49 50

126
ASUS44 KLZK 232005
RWRLZK

WEATHER ROUNDUP FOR ARKANSAS
NATIONAL WEATHER SERVICE LITTLE ROCK AR
300 PM CDT MON OCT 23 2017

NOTE: "FAIR" INDICATES FEW OR NO CLOUDS BELOW 12,000 FEET WITH NO
SIGNIFICANT WEATHER AND/OR OBSTRUCTIONS TO VISIBILITY.

ARZ001-003-010-029-232100-
NORTHWEST ARKANSAS

CITY           SKY/WX    TMP DP  RH WIND       PRES   REMARKS
FAYETTEVILLE   SUNNY     69  45  41 NW20      29.99R
FORT SMITH     SUNNY     75  45  33 W18G29    29.98R
HARRISON       MOSUNNY   73  40  30 W18G24    29.92S
BENTONVILLE    SUNNY     65  45  48 W15G24    30.02R
ROGERS         SUNNY     65  46  50 W20       30.00R
SILOAM SPGS    SUNNY     68  46  45 NW15      30.03R
HIGHFILL       SUNNY     67  45  45 NW16G24   30.01R
SPRINGDALE     MOSUNNY   68  45  42 NW15G26   30.00R
$$

ARZ004-005-016-232100-
NORTH CENTRAL ARKANSAS

CITY           SKY/WX    TMP DP  RH WIND       PRES   REMARKS
BATESVILLE     SUNNY     73  44  35 SW14G20   29.90F
FLIPPIN        SUNNY     76  41  28 W14G21    29.88F
$$

ARZ040-041-232100-
WEST CENTRAL ARKANSAS

CITY           SKY/WX    TMP DP  RH WIND       PRES   REMARKS
MENA           MOSUNNY   77  41  27 W15G22    30.00F
MOUNT IDA      MOSUNNY   77  34  21 VRB5      29.96F
$$

ARZ009-017-025-026-028-232100-
NORTHEAST ARKANSAS

CITY           SKY/WX    TMP DP  RH WIND       PRES   REMARKS
CORNING        FAIR      73  45  35 SW14G21   29.87F
JONESBORO      SUNNY     74  46  36 W12       29.89F
NEWPORT        SUNNY     74  43  32 W16       29.90F
WALNUT RIDGE   SUNNY     73  42  32 SW15      29.87F
BLYTHEVILLE    SUNNY     70  43  37 SW7       29.89F
NW BLYTHEVILLE SUNNY     72  43  35 W9        29.90F
$$

ARZ022-023-033-042-044-232100-
CENTRAL ARKANSAS

CITY           SKY/WX    TMP DP  RH WIND       PRES   REMARKS
LITTLE ROCK    MOSUNNY   75  41  29 SW13      29.95F
JACKSONVILLE   MOSUNNY   76  41  28 W12G18    29.94F
SEARCY         SUNNY     73  41  31 W10G26    29.94F
HOT SPRINGS    MOSUNNY   77  43  29 SW13G18   29.98F
RUSSELLVILLE   SUNNY     74  46  36 W6        29.94F
CLINTON        FAIR      73  43  33 SW13G20   29.92F
$$

ARZ036-232100-
EAST ARKANSAS

CITY           SKY/WX    TMP DP  RH WIND       PRES   REMARKS
WEST MEMPHIS   SUNNY     69  43  38 VRB5      29.93F
$$

ARZ050-053-066-070-073-232100-
SOUTHWEST ARKANSAS

CITY           SKY/WX    TMP DP  RH WIND       PRES   REMARKS
ARKADELPHIA    FAIR      76  45  33 W9        30.00F
CAMDEN         MOSUNNY   77  37  24 SW7       30.01F
TEXARKANA      SUNNY     75  45  34 W10       30.04F
EL DORADO      MOSUNNY   74  43  32 W6        30.04F
DE QUEEN       CLOUDY    77  46  33 SW12      30.00F
$$

ARZ056-057-069-232100-
SOUTHEAST ARKANSAS

CITY           SKY/WX    TMP DP  RH WIND       PRES   REMARKS
PINE BLUFF     MOSUNNY   73  44  35 SW12      29.99F
STUTTGART      SUNNY     75  42  30 W15G21    29.96F
MONTICELLO     SUNNY     73  42  32 W8        30.01F

$$






USA.gov is the U.S. government's official web portal to all federal, state and local government web resources and services.